This is the latest recevied weather packets stored in our database for station/object K1BWE-1. If no packets are shown the sender has not sent any weather packets the latest 10 day(s).
| Time | Temp. | Humidity | Pressure | Rain* | Wind** | Luminosity | Snow |
|---|---|---|---|---|---|---|---|
| 1777745634 | 28.33° C | 18% | 1017 hPa | 0 mm | - | 820 W/m² | - |
| 1777745332 | 28.89° C | 19% | 1016.8 hPa | 0 mm | - | 822 W/m² | - |
| 1777744724 | 28.89° C | 19% | 1017.4 hPa | 0 mm | - | 803 W/m² | - |
| 1777744116 | 28.33° C | 21% | 1017.1 hPa | 0 mm | - | 759 W/m² | - |
| 1777742905 | 27.78° C | 20% | 1017.2 hPa | 0 mm | - | 795 W/m² | - |
| 1777742297 | 26.67° C | 22% | 1017.2 hPa | 0 mm | - | 798 W/m² | - |
| 1777741691 | 26.67° C | 22% | 1017.2 hPa | 0 mm | - | 824 W/m² | - |
| 1777739869 | 26.67° C | 24% | 1017.2 hPa | 0 mm | - | 765 W/m² | - |
| 1777739264 | 27.22° C | 23% | 1017.2 hPa | 0 mm | - | 718 W/m² | - |
| 1777738658 | 26.11° C | 26% | 1017.1 hPa | 0 mm | - | 654 W/m² | - |
| 1777738052 | 25.56° C | 25% | 1017.4 hPa | 0 mm | - | 601 W/m² | - |
| 1777736842 | 25° C | 24% | 1017 hPa | 0 mm | - | 496 W/m² | - |
| 1777736224 | 24.44° C | 24% | 1016.8 hPa | 0 mm | - | 468 W/m² | - |
| 1777735920 | 24.44° C | 25% | 1016.8 hPa | 0 mm | - | 422 W/m² | - |
| 1777735618 | 24.44° C | 25% | 1016.8 hPa | 0 mm | - | 390 W/m² | - |
| 1777735315 | 24.44° C | 25% | 1016.8 hPa | 0 mm | - | 375 W/m² | - |
| 1777735013 | 24.44° C | 25% | 1016.5 hPa | 0 mm | - | 326 W/m² | - |
| 1777734710 | 23.89° C | 25% | 1016.6 hPa | 0 mm | - | 294 W/m² | - |
| 1777734407 | 23.33° C | 25% | 1016.5 hPa | 0 mm | - | 267 W/m² | - |
| 1777734103 | 23.33° C | 26% | 1016.2 hPa | 0 mm | - | 269 W/m² | - |
| 1777733799 | 22.78° C | 27% | 1016.3 hPa | 0 mm | - | 269 W/m² | - |
| 1777733497 | 22.22° C | 28% | 1016.5 hPa | 0 mm | - | 249 W/m² | - |
| 1777732889 | 21.67° C | 29% | 1016.3 hPa | 0 mm | - | 244 W/m² | - |
| 1777732586 | 20.56° C | 29% | 1016.2 hPa | 0 mm | - | 204 W/m² | - |
| 1777732284 | 20.56° C | 31% | 1016.3 hPa | 0 mm | - | 172 W/m² | - |
* Rain latest hour (hover to see other rain measurements)
** Current wind speed in m/s (hover to see current wind gust speed)